STARLINK-1709, 46561

Orbit data source: Space-Track

STARLINK-1709, 46561 is a payload satellite owned by SpaceX/Seattle (US) in LEO that was launched on Tue, 06 Oct 2020 UTC via an FALCON 9 launch vehicle from the Air Force Eastern Test Range (AFETR). Payloads include a variety of satellites, spacecraft, and rockets equipped with specific instruments for various scientific and technological missions. These include communications satellites like Starlink; space stations such as the ISS; scientific satellites like the Hubble; Earth observation satellites from companies like Planet Labs, Umbra, and HawkEye 360; GPS; miniature CubeSats for education and research; and military/defense satellites.

Loading next visibility...
STARLINK-1709 details
Identifier
46561, 2020-070AF
Orbit
LEO
Last TLE update13 hours ago
Origin
Flag of USSpaceX/Seattle (US)
ManufacturerSpaceX/Seattle
MissionPartially operational Commercial Communications
Bus & MotorSTARLINK, Unknown motor
Mass260 kg wet, ~248 kg dry
Launch date (UTC)
2020-10-06 (4 years ago)
Launch vehicle
FALCON 9
Launch site
Air Force Eastern Test Range (AFETR)
Object type
Payload
Rocket body
Debris
Shape & HBRBox + 1 Pan, 8.86 m
Radar Cross Section13.562 m², Large (>1 m²)

Expand to show TLE details & history

TLE from 13 hours ago
0 STARLINK-1709
1 46561U 20070AF  24339.91668981  .00150000  00000-0  16461-2 0  9996
2 46561  53.0483  52.6971 0005771  15.4044 117.0692 15.62231695  5871
Epoch: 2024-12-04T22:00Z
Definitive object data (Epoch: 2024-12-04T22:00:01.999Z)
Latitude36.19683°
Longitude155.29443°
Altitude385.785 km
Speed7.682 km/s
True Right ascension13h 18m 01s
True Declination36° 01' 27"
Sunlit
Object was in daylight at TLE epoch
Visualization TLE readout
Latitude-21.47575°
Longitude-11.30774°
Altitude383.981 km
Speed7.681 km/s
Apparent Right ascension00h 01m 33s
Apparent Declination-36° 25' 41"
Sunlit
Object is in full shadow
Visualization observer readout
Local Sidereal Time09:06:47
Azimuth261.594° W
Elevation-55.817°
Doppler factor1
Orbital elements
Apogee altitude385.391 km
Perigee altitude377.589 km
Semi-major axis6,759.627 km
Eccentricity0.0005771
Inclination53.0483°
RAAN52.6971°
Arg. of periapsis15.4044°
True anomaly117.12807°
Mean anomaly117.0692°
Eccentric anomaly117.09864°
Mean motion3.90534 °/min
BSTAR0.0016461
Orbital period92.18 mins
Loading maneuver chart data...
Loading historical data...
Loading historical data...
Loading historical data...
Loading historical data...
Loading historical data...
Loading historical data...
Loading historical data...

STARLINK-1709 Visibility forecast

Observer location: undefined°, undefined

Span
Click to sort rows by Start time (UTC) header in descending order
Start Az.
Max El. time (UTC)
Max El. Az.
Max El.
End time (UTC)
End Az.
4 mins2024-12-05 14:50:17.454Z302.095° NW2024-12-05 14:52:17.454Z200.632° SSW42.908°2024-12-05 14:54:17.454Z140.658° SSE
4 mins2024-12-06 07:24:17.454Z213.603° SW2024-12-06 07:25:17.454Z190.315° SSW38.909°2024-12-06 07:28:17.454Z56.539° ENE
|